{"data":{"norad_id":59103,"intl_designator":"2024-043F","name":"ICEYE-X36","alt_names":[],"object_type":"PAYLOAD","status":"ACTIVE","operator":null,"country":"US","launch_date":"2024-03-04","launch_site_code":"AFWTR","launch_vehicle":null,"mission":null,"orbit_class":"UNKNOWN","rcs_meters":null,"size_class":null,"mass_kg":null,"dimensions":null,"purposes":[],"wikipedia_slug":null,"has_3d_model":false,"image_url":null,"decayed_at":null,"tle_current":{"epoch":"2026-09-22T00:54:02.547936Z","epoch_age_seconds":122337,"freshness":"FRESH","line1":"1 59103U 24043F   26265.03752949  .00001861  00000+0  12644-3 0  9996","line2":"2 59103  97.8497  44.9611 0005771   7.0979 353.0329 15.07652335139736","mean_motion":15.07652335,"eccentricity":0.0005771,"inclination_deg":97.8497,"raan_deg":44.9611,"arg_perigee_deg":7.0979,"mean_anomaly_deg":353.0329,"bstar":0.00012644,"rev_number":13973,"period_min":95.512736363055,"perigee_km":539.38158349204,"apogee_km":547.37039378352,"semimajor_km":6921.5129886378,"source":"CELESTRAK","updated_at":"2026-09-23T09:00:19.173782Z"}}}